{"data":{"norad_id":61058,"intl_designator":"2024-164J","name":"STARLINK-11299 [DTC]","alt_names":[],"object_type":"PAYLOAD","status":"ACTIVE","operator":null,"country":"US","launch_date":"2024-09-13","launch_site_code":"AFWTR","launch_vehicle":null,"mission":null,"orbit_class":"UNKNOWN","rcs_meters":null,"size_class":null,"mass_kg":null,"dimensions":null,"purposes":["comms"],"wikipedia_slug":null,"has_3d_model":false,"image_url":null,"decayed_at":null,"tle_current":{"epoch":"2026-09-21T17:17:05.905536Z","epoch_age_seconds":86734,"freshness":"FRESH","line1":"1 61058U 24164J   26264.72020724 -.00000367  00000+0  18228-5 0  9993","line2":"2 61058  53.1601  65.2072 0000924  92.3897 267.7227 15.69705319116202","mean_motion":15.69705319,"eccentricity":9.24e-5,"inclination_deg":53.1601,"raan_deg":65.2072,"arg_perigee_deg":92.3897,"mean_anomaly_deg":267.7227,"bstar":1.8228e-6,"rev_number":11620,"period_min":91.736963783583,"perigee_km":359.11756583502,"apogee_km":360.36272553154,"semimajor_km":6737.8771456833,"source":"CELESTRAK","updated_at":"2026-09-22T09:00:49.332385Z"}}}